TimeEAT,TemperatureF,Dew PointF,Humidity,Sea Level PressureIn,VisibilityMPH,Wind Direction,Wind SpeedMPH,Gust SpeedMPH,PrecipitationIn,Events,Conditions,WindDirDegrees,DateUTC
12:00 AM,78,74,84,29.93,19,Calm,Calm,,,,Scattered Clouds,,2013-12-02 21:00:00
12:00 AM,77.0,73.4,89,29.92,6.2,Calm,Calm,-,N/A,,Partly Cloudy,0,2013-12-02 21:00:00
1:00 AM,77.0,73.4,89,29.89,6.2,Calm,Calm,-,N/A,,Partly Cloudy,0,2013-12-02 22:00:00
2:00 AM,77.0,73.4,89,29.89,6.2,Calm,Calm,-,N/A,,Partly Cloudy,0,2013-12-02 23:00:00
3:00 AM,77,74,87,29.86,19,Calm,Calm,,,,Scattered Clouds,,2013-12-03 00:00:00
3:00 AM,77.0,73.4,89,29.89,6.2,Calm,Calm,-,N/A,,Partly Cloudy,0,2013-12-03 00:00:00
5:00 AM,75.2,73.4,94,29.86,6.2,Calm,Calm,-,N/A,,Partly Cloudy,0,2013-12-03 02:00:00
6:00 AM,75,74,95,29.89,12,Calm,Calm,,,,Partly Cloudy,,2013-12-03 03:00:00
6:00 AM,75.2,73.4,94,29.89,6.2,Calm,Calm,-,N/A,,Mostly Cloudy,0,2013-12-03 03:00:00
7:00 AM,77.0,75.2,94,29.89,6.2,Calm,Calm,-,N/A,,Partly Cloudy,0,2013-12-03 04:00:00
8:00 AM,78.8,75.2,89,29.92,6.2,Calm,Calm,-,N/A,,Mostly Cloudy,0,2013-12-03 05:00:00
9:00 AM,81,74,74,29.94,16,West,5.8,,,,Partly Cloudy,270,2013-12-03 06:00:00
9:00 AM,80.6,73.4,79,29.92,6.2,West,5.8,-,N/A,,Mostly Cloudy,270,2013-12-03 06:00:00
11:00 AM,84.2,75.2,74,29.92,6.2,West,11.5,-,N/A,,Scattered Clouds,270,2013-12-03 08:00:00
12:00 PM,84,75,69,29.91,16,West,6.9,,,,Partly Cloudy,270,2013-12-03 09:00:00
12:00 PM,84.2,75.2,74,29.89,6.2,West,9.2,-,N/A,,Mostly Cloudy,270,2013-12-03 09:00:00
1:00 PM,84.2,75.2,74,29.86,6.2,SW,8.1,-,N/A,,Mostly Cloudy,220,2013-12-03 10:00:00
2:00 PM,86.0,73.4,66,29.83,6.2,WSW,6.9,-,N/A,,Mostly Cloudy,240,2013-12-03 11:00:00
3:00 PM,87,73,56,29.83,16,SSW,4.6,,,,Partly Cloudy,210,2013-12-03 12:00:00
3:00 PM,87.8,73.4,62,29.83,6.2,SSW,4.6,-,N/A,,Mostly Cloudy,210,2013-12-03 12:00:00
4:00 PM,86.0,75.2,70,29.80,6.2,SSW,4.6,-,N/A,,Partly Cloudy,205,2013-12-03 13:00:00
5:00 PM,86.0,73.4,66,29.80,6.2,South,8.1,-,N/A,,Partly Cloudy,180,2013-12-03 14:00:00
6:00 PM,85,74,63,29.81,19,SE,9.2,,,,Scattered Clouds,130,2013-12-03 15:00:00
6:00 PM,84.2,75.2,74,29.80,6.2,SE,9.2,-,N/A,,Partly Cloudy,130,2013-12-03 15:00:00
7:00 PM,82.4,73.4,74,29.83,6.2,ESE,5.8,-,N/A,,Partly Cloudy,110,2013-12-03 16:00:00
9:00 PM,79,73,78,29.87,19,East,8.1,,,,Scattered Clouds,100,2013-12-03 18:00:00
9:00 PM,78.8,73.4,83,29.80,6.2,East,8.1,-,N/A,,Partly Cloudy,100,2013-12-03 18:00:00
10:00 PM,78.8,73.4,83,29.89,6.2,East,5.8,-,N/A,,Partly Cloudy,90,2013-12-03 19:00:00
11:00 PM,78.8,75.2,89,29.89,6.2,Calm,Calm,-,N/A,,Partly Cloudy,0,2013-12-03 20:00:00